CZ-6A DEB, 60889

Orbit data source: Space-Track

CZ-6A DEB, 60889 is space debris in LEO originally from a launch on Tue, 06 Aug 2024 UTC launched from the Taiyaun Space Center, China (TSC). Debris objects in space refer to the collection of defunct objects orbiting the Earth. Examples of debris include non-operational satellites, rocket bodies, and fragments generated from explosions, collisions, or faulty payload assembly.

Loading next visibility...
Identifier
60889, 2024-140KU
Orbit
LEO
Country
Flag of CNCN / PRC
Related business
Manufacturer
SAST
Mission
Spacecraft
Bus & Motor
Unknown
Mass
Unknown
Launch date (UTC)
2024-08-06 (2 years ago)
Launch vehicle
Unknown
Launch site
Taiyaun Space Center, China (TSC)
Object type
Payload
Rocket body
Debris
Shape & HBR
Unknown shape, 0.2 m
Radar Cross Section
Small (<0.1 m²)

Expand to show TLE details & history
Last TLE update: 15 hours ago

TLE from 15 hours ago
0 CZ-6A DEB
1 60889U 24140KU  26118.47717639  .00001262  00000-0  54953-3 0  9994
2 60889  88.9979 280.1986 0037029 354.0774   5.9974 14.23108978 86458
Epoch: 2026-04-28T11:27Z
TLE epoch observation values (Epoch: 2026-04-28T11:27:08.040Z)
Latitude
-0.00006°
Longitude
-108.03683°
Altitude
791.421 km
Speed
7.472 km/s
True Right ascension
18h 40m 47s
True Declination
0° 00' 00"
Sunlit
Object was in daylight at epoch
Visualization orbit readout
Latitude
Unknown
Longitude
Unknown
Altitude
Unknown
Speed
Unknown
Apparent Right ascension
Unknown
Apparent Declination
Unknown
Sunlit
N/A
Visualization observer readout
Local Sidereal Time
10:06:06
Azimuth
Unknown
Elevation
Unknown
Doppler factor
Unknown
Orbital elements
Apogee altitude
838.428 km
Perigee altitude
785.181 km
Semi-major axis
7,189.941 km
Eccentricity
0.0037
Inclination
88.9979°
RAAN
280.1986°
Arg. of periapsis
354.0774°
True anomaly
6.04194°
Mean anomaly
5.9974°
Eccentric anomaly
6.01965°
Mean motion
3.56004 °/min
Orbital period
101.12 mins
BSTAR
0.00054953
Loading maneuver chart data...
Computing Atmospheric mass density...
Loading historical data...
Loading historical data...
Loading historical data...
Loading historical data...
Loading historical data...
Loading historical data...
Loading historical data...

Documentation

Showing up to 5 results
|